Volver al catálogo

CZ-3B R/B

ActivoHEO
NORAD 43110·ROCKET BODY·🇨🇳 China

Lanzado Jan 11, 2018 desde Xichang Satellite Launch Center

Loading…

Próximos Pases (próximas 24 horas)

TLE

ActualizadoSource: Space-Track

Época: Sep 12, 2026, 17:25 UTC

1 43110U 18003D   26255.72621128  .00003703  00000-0  96463-3 0  9994
2 43110  54.8843  77.5422 5632112  93.9177 328.7631  4.58059055143960

Sigue CZ-3B R/B en tiempo real con AllMySat

Download on the App Store